LiveATC.Net - Listen to live air traffic control over the Internet!

NOTICE

Unauthorized use prohibited. See LiveATC.net Terms of Service



ICAO: CYHZ  IATA: YHZ   Airport: Halifax International Airport
City: Halifax   State/Province: Nova Scotia
Country: Canada   Continent: North America
CYHZ METAR Weather: CYHZ 192300Z 18010KT 15SM FEW260 13/11 A3007 RMK CI1 SLP186
CYHZ Flight Activity (FlightAware)
CYHZ Webcam:  (Airport Webcams) 
CYHZ Airport Info   (AirNav) (iFlightPlanner)

Moncton Center (YHZ)
Feed Status: UP   Listeners: 1
Listen right in your browser - requires Flash (in browser, requires Flash)
Click here to listen with your own player (launches your MP3 player)
Moncton Center (YHZ) Audio Archives
FacilityFrequency
Moncton Radar (Cape Breton Sector/High)125.250
Moncton Radar (Cape Breton Sector/High)133.950
Moncton Radar (Cape Breton Sector/Low)266.300
Moncton Radar (Cape Breton Sector/Low)118.600
Moncton Radar (Cape Breton Sector/Low)135.300
Moncton Radar (Cape Breton Sector/Low)134.350
Moncton Radar (Charlo Sector/Low)134.250
Moncton Radar (Charlo Sector/Low)123.700
Moncton Radar (Digby Sector/High)368.500
Moncton Radar (Digby Sector/High)228.300
Moncton Radar (Digby Sector/Low)123.900
Moncton Radar (Digby Sector/Low)294.500
Moncton Radar (Digby Sector/Low)135.500
Moncton Radar (Digby Sector/Low)368.500
Moncton Radar (Digby Sector/Low)132.200
Moncton Radar (Forte Sector/High)132.750
Moncton Radar (Freddy Sector/Low)132.700
Moncton Radar (Fundy Sector/High)133.875
Moncton Radar (Fundy Sector/Low)127.125
Moncton Radar (Grindstone Sector/High)132.800
Moncton Radar (Low)135.650
Moncton Radar (Saint John Sector/Low270.800
Moncton Radar (Sept-Iles Sector/High)133.350
Moncton Radar (St John Sector/Low)124.300
Moncton Radar (Sydney Sector/High)133.300
Moncton Radar (Sydney Sector/High)133.700
Moncton Radar (Taffy Sector/High)133.550
Moncton Radar (Taffy Sector/High)126.325
Moncton Radar (Taffy Sector/High)120.325
Moncton Radar (Taffy Sector/High)135.775
Moncton Radar (Tusky Bradd Sector/High)135.200
Moncton Radar (Vitol Sector/High)128.375
Moncton Radar (Whale Kanni Sector/High)132.975
Moncton Radar High132.525
Moncton Radar High124.975
Moncton Radar High118.875
Moncton Radar Low124.400

ICAO: CYQI  IATA: YQI   Airport: Yarmouth Airport
City: Yarmouth   State/Province: Nova Scotia
Country: Canada   Continent: North America
CYQI METAR Weather: CYQI 192300Z 20016KT 9SM BKN005 14/13 A3006 RMK SF7 SLP183
CYQI Flight Activity (FlightAware)
CYQI Webcam:  
CYQI Airport Info   (AirNav) (iFlightPlanner)

CYQI/CZQM CTAF/FIC/Center
Feed Status: UP   Listeners: 0
Listen right in your browser - requires Flash (in browser, requires Flash)
Click here to listen with your own player (launches your MP3 player)
CYQI/CZQM CTAF/FIC/Center Audio Archives
FacilityFrequency
Halifax FIC123.550
Moncton Approach/Departure119.200
Moncton Center (Digby Sector - Moncton)132.200
Moncton Center (Digby Sector)123.900
Moncton Center (TUSKY/BRADD Sector)135.200
Moncton Center (Vitol Sector)128.375
Moncton Center (WHALE /KANNI Sector)132.975
Yarmouth CTAF/UNICOM123.000

ICAO: KPUB  IATA: PUB   Airport: Pueblo Memorial Airport
City: Pueblo   State/Province: Colorado
Country: United States   Continent: North America
KPUB METAR Weather: KPUB 192253Z 08011KT 10SM CLR 24/01 A2992 RMK AO2 SLP095 T02390011
KPUB Flight Activity (FlightAware)
KPUB Webcam:  
KPUB Airport Info   (AirNav) (iFlightPlanner)

ZDV Pueblo Low
Feed Status: UP   Listeners: 0
Listen right in your browser - requires Flash (in browser, requires Flash)
Click here to listen with your own player (launches your MP3 player)
ZDV Pueblo Low Audio Archives
FacilityFrequency
Denver Center (Pueblo Low Sector)128.375

NOTICE

Unauthorized use prohibited. See LiveATC.net Terms of Service


Find LiveATC Audio Streams


Airport/ARTCC Code

Frequency Search
(e.g., 124.400, 128.75)
Site-wide search
 


Browse LiveATC Feeds
LiveATC Coverage Map
Top 50 LiveATC Feeds
Bad Weather Areas

LiveATC FAQ
Offer a LiveATC Feed
Contact LiveATC.net
Press Inquiries

LiveATC on iPhone
LiveATC on Android

Windows Phone
Windows 8/10

LiveATC Mobile
(Mobile browser)

ATC Audio Archives
Interesting Recordings

LiveATC Forums


Home Page
About LiveATC.net
Make a Donation
LiveATC Store

Terms of Use
Privacy Policy

Canadian Air Freqs

AIRMETs/SIGMETs

FAA Airport Status
Nat'l Airspace Status
Arrival Demand Charts


Server Software By:
Icecast.org
Liquidsoap

Please make a donation to help us keep growing!